Regional Weather Roundup
Issued by NWS

Home | Current Version | Previous Version | Graphics & Text | Print | Product List | Glossary On
Versions: 1 2 3 4 5 6 7 8 9 10 11 12 13 14 15 16 17 18 19 20 21 22 23 24 25 26 27 28 29 30 31 32 33 34 35 36 37 38 39 40 41 42 43 44 45 46 47 48 49 50
151
ASUS45 KBOU 261007
RWRCO

WEATHER ROUNDUP FOR COLORADO
NATIONAL WEATHER SERVICE DENVER/BOULDER CO
400 AM MDT SUN MAR 26 2017

NOTE: "FAIR" INDICATES FEW OR NO CLOUDS BELOW 12000 FEET WITH NO
SIGNIFICANT WEATHER AND/OR OBSTRUCTIONS TO VISIBILITY.

COZ001>005-013-030-031-261100-
...NORTHWEST COLORADO...

CITY           SKY/WX    TMP DP  RH WIND       PRES   REMARKS
CRAIG          CLOUDY    40  32  73 W13       29.92S
HAYDEN         MOCLDY    37  30  75 W16       29.89F
MEEKER         CLOUDY    38  34  85 W8        29.91S
MOUNT WERNER   NOT AVBL
STEAMBOAT SPGS CLOUDY    36  35  96 CALM      29.89S
WALDEN         NOT AVBL
$$

COZ006>008-011-261100-
...WEST CENTRAL VALLEYS...

CITY           SKY/WX    TMP DP  RH WIND       PRES   REMARKS
GRAND JUNCTION CLOUDY    47  37  68 N8        29.87S
MONTROSE       LGT RAIN  40  38  93 SE8       29.91F
EAGLE          CLOUDY    35  31  85 E5        29.90F WCI  31
RIFLE          LGT RAIN  41  38  89 W6        29.88F
DELTA          CLOUDY    45  41  85 NE5       29.88F
NUCLA          CLOUDY    39  37  93 E3        29.95F
$$

COZ017>023-064>068-261100-
...SOUTHWEST COLORADO...

CITY           SKY/WX    TMP DP  RH WIND       PRES   REMARKS
DURANGO        CLOUDY    36  33  89 SW12      29.89F
CORTEZ         CLOUDY    39  39 100 CALM      29.93F
PAGOSA SPRINGS LGT SNOW  35  35 100 SW8       29.89F WCI  28
TELLURIDE      SNOW      31  31 100 W10       29.93F VSB 1/2 WCI  22
WOLF CREEK PAS SNOW      19  19 100 S12       29.95F VSB 1/2 WCI   7
$$

COZ009-010-012-014-032>034-037-058>063-261100-
...CENTRAL COLORADO...

CITY           SKY/WX    TMP DP  RH WIND       PRES   REMARKS
ASPEN          CLOUDY    36  34  92 N3        29.87F
BUENA VISTA    FAIR      34  28  77 W3        29.84F
COPPER MTN     HAZE      28  23  80 MISG      29.94F VSB 1/4
BERTHOUD PASS  CLOUDY    19   9  63 MISG      29.92F
COTTONWOOD PAS CLOUDY    34  30  86 CALM      29.87F
GUNNISON       MOCLDY    34  31  88 CALM      29.87F
KREMMLING      CLOUDY    37  36  93 CALM      29.90S
LEADVILLE      CLOUDY    29  24  82 N8        29.88F WCI  21
MONARCH PASS   LGT SNOW  25  23  93 W3        30.01F
SALIDA         CLOUDY    40  35  84 S6        29.90F
SUNLIGHT       SNOW      27  27 100 NW6       29.98S VSB 1/4 WCI  20
WILKERSON PASS CLOUDY    28  23  80 N10G17    29.91F WCI  19
$$

COZ069>075-261100-
...SAN LUIS VALLEY/SANGRE DE CRISTO MOUNTAINS...

CITY           SKY/WX    TMP DP  RH WIND       PRES   REMARKS
ALAMOSA        CLOUDY    36  35  96 NE6       29.82F
LA VETA PASS   NOT AVBL
SAGUACHE       CLOUDY    36  32  87 NW9       29.83F
$$

COZ035-036-038>040-261100-
...NORTHERN COLORADO FRONT RANGE...

CITY           SKY/WX    TMP DP  RH WIND       PRES   REMARKS
DENVER INTL AP MOCLDY    43  32  65 N5        29.78F
DMNS CITY PARK   N/A     45  31  59 N3G10     29.78S
AURORA         MOCLDY    40  31  69 CALM      29.79F
FRONT RANGE AP FAIR      41  32  70 S3        29.79F
ERIE MUNI ARPT FAIR      43  34  69 CALM      29.79S
BOULDER MUN AP FAIR      45  32  61 W3        29.79F
CENTENNIAL     MOCLDY    40  31  70 E5        29.79F
BROOMFIELD     FAIR      45  32  61 N10       29.79F
FORT COLLINS   LGT RAIN  47  36  65 N10       29.79F
LONGMONT       FAIR      48  34  59 CALM      29.81F
$$

COZ041-046-047-076>085-087-088-261100-
...PIKES PEAK/PALMER DIVIDE AND SOUTHERN FOOTHILLS...

CITY           SKY/WX    TMP DP  RH WIND       PRES   REMARKS
COLO. SPRINGS  CLOUDY    41  26  55 N5        29.80S
A. F. ACADEMY  CLOUDY    35  29  81 CALM      29.79F
SCHRIEVER AFB  DRIZZLE   39  27  60 N12       29.79F
ELLICOTT         N/A    N/A N/A N/A NE8       29.76F
FALCON         CLOUDY    36  25  63 CALM      29.81S
FORT CARSON    MOCLDY    42  28  56 N13       29.76F
LIMON          MOCLDY    37  31  78 CALM      29.79F
MONUMENT HILL  MOCLDY    32  25  74 CALM      29.81F
TRINIDAD       FAIR      44  32  62 NW3       29.72F
$$

COZ042>045-048>051-090-091-261100-
...NORTHEAST COLORADO...

CITY           SKY/WX    TMP DP  RH WIND       PRES   REMARKS
GREELEY ARPT   FAIR      44  31  60 N9        29.79F
AKRON          CLOUDY    43  28  55 S14       29.79F
BURLINGTON     MOCLDY    39  38  96 SE10      29.79F
WRAY           FAIR      41  41 100 E6        29.81F
STERLING       FAIR      43  32  65 CALM      29.78F
HOLYOKE        CLOUDY    37  36  93 E3        29.82S FOG
FORT MORGAN    FAIR      36  30  79 NE6       29.78F
$$

COZ086-089-092>099-261100-
...SOUTHEAST COLORADO...

CITY           SKY/WX    TMP DP  RH WIND       PRES   REMARKS
PUEBLO         CLOUDY    45  29  53 N10       29.74F
LA JUNTA       FAIR      41  28  60 E9        29.70F
LAMAR          FAIR      38  35  89 E7        29.71F
SPRINGFIELD      N/A     37  26  64 S10       29.71F
$$




USA.gov is the U.S. government's official web portal to all federal, state and local government web resources and services.